Location: Unspecified
(51.5147°N, 7.4673°E)
Time: 04:35:50
(UTC+01:00)

Vanguard 1 Rocket - Pass Details

Date: 21 February 2026
Orbit: 653 x 4214 km, 34.3° (Epoch: 8 March)

Event Time Altitude Azimuth Distance (km) Brightness Sun altitude
Rises 16:30:03 0° 258° (WSW) 5,014 12.7 11.3°
Reaches altitude 10° 16:33:05 10° 249° (WSW) 4,409 13.1 10.9°
Maximum altitude 16:44:40 38° 188° (S) 3,904 11.2 9.4°
Drops below altitude 10° 17:03:44 10° 131° (SE) 7,121 11.7 6.7°
Sets 17:10:32 0° 125° (SE) 8,379 12.0 5.8°
